[Iaude] MPEC V102: 2016 VX3 [a=1.73,e=0.28,i=47.1,H=20.6]

mpec at si.edu mpec at si.edu
Thu Nov 10 14:22:02 EST 2016


M.P.E.C. 2016-V102                               Issued 2016 Nov. 10, 19:17 UT
 
     The Minor Planet Electronic Circulars contain information on unusual
         minor planets and routine data on comets.  They are published
    on behalf of Division F of the International Astronomical Union by the
          Minor Planet Center, Smithsonian Astrophysical Observatory,
                          Cambridge, MA 02138, U.S.A.

             Prepared using the Tamkin Foundation Computer Network

                              MPC at CFA.HARVARD.EDU
            URL http://www.minorplanetcenter.net/    ISSN 1523-6714


                                   2016 VX3
 
Observations:
     K16V03X* C2016 11 07.16333 01 34 17.19 +20 39 13.5          20.5 VqEV102G96
     K16V03X  C2016 11 07.16761 01 34 15.84 +20 39 28.4          19.6 VqEV102G96
     K16V03X  C2016 11 07.17189 01 34 14.55 +20 39 42.1          20.1 VqEV102G96
     K16V03X  C2016 11 07.17617 01 34 13.11 +20 39 56.9                qEV102G96
     K16V03X  C2016 11 07.24688 01 33 51.44 +20 43 48.8          20.4 RoEV102926
     K16V03X  C2016 11 07.25286 01 33 49.62 +20 44 08.6          20.1 RoEV102926
     K16V03X  C2016 11 07.25917 01 33 47.67 +20 44 28.9          20.5 RoEV102926
     K16V03X KC2016 11 07.38259101 33 10.66 +20 51 14.5          20.9 VqEV102T04
     K16V03X KC2016 11 07.38533201 33 09.83 +20 51 23.8          20.7 VqEV102T04
     K16V03X KC2016 11 07.38768901 33 09.12 +20 51 31.4          19.9 VqEV102T04
     K16V03X KC2016 11 07.39004301 33 08.39 +20 51 38.9          20.1 VqEV102T04
     K16V03X KC2016 11 07.39240501 33 07.65 +20 51 46.7          20.0 VqEV102T04
     K16V03X KC2016 11 07.39480901 33 06.92 +20 51 54.1          22.2 VqEV102T04
     K16V03X KC2016 11 07.39721301 33 06.19 +20 52 01.9          20.4 VqEV102T04
     K16V03X  C2016 11 07.42464 01 32 57.13 +20 53 24.6          20.8 VqEV102G96
     K16V03X  C2016 11 07.42650 01 32 56.58 +20 53 29.5          20.8 VqEV102G96
     K16V03X  C2016 11 07.42835 01 32 55.98 +20 53 35.9          20.6 VqEV102G96
     K16V03X  C2016 11 07.43021 01 32 55.54 +20 53 42.1          19.6 VqEV102G96
     K16V03X  C2016 11 08.19443 01 29 11.11 +21 34 20.1          20.6 RoEV102926
     K16V03X  C2016 11 08.20073 01 29 09.19 +21 34 40.1          20.3 RoEV102926
     K16V03X  C2016 11 08.20115 01 29 09.06 +21 34 40.9          20.3 VqEV102G96
     K16V03X  C2016 11 08.20376 01 29 08.31 +21 34 48.5          20.5 VqEV102G96
     K16V03X  C2016 11 08.20697 01 29 07.32 +21 34 59.4          20.5 RoEV102926
     K16V03X  C2016 11 08.20834 01 29 06.94 +21 35 03.3          20.6 VqEV102G96
     K16V03X  C2016 11 09.16390 01 24 32.50 +22 23 43.9          20.5 VqEV102G96
     K16V03X  C2016 11 09.16577 01 24 31.96 +22 23 50.6          21.1 VqEV102G96
     K16V03X  C2016 11 09.16809 01 24 31.27 +22 23 57.2          21.4 VqEV102G96
     K16V03X  C2016 11 09.16995 01 24 30.72 +22 24 04.1          21.0 VqEV102G96
     K16V03X  C2016 11 09.17050 01 24 30.59 +22 24 04.6          20.3 RoEV102926
     K16V03X  C2016 11 09.17375 01 24 29.65 +22 24 14.0          19.8 RoEV102926
     K16V03X  C2016 11 09.17703 01 24 28.72 +22 24 23.7          20.2 RoEV102926
     K16V03X  C2016 11 09.30464 01 23 51.78 +22 30 44.4          20.5 RoEV102926
     K16V03X  C2016 11 09.31186 01 23 49.65 +22 31 05.4          20.8 RoEV102926
     K16V03X  C2016 11 09.31898 01 23 47.60 +22 31 26.5          20.2 RoEV102926
     K16V03X KC2016 11 09.40056 01 23 24.29 +22 35 25.0          19.5 RoEV102291
     K16V03X KC2016 11 09.40280 01 23 23.64 +22 35 32.1          19.6 RoEV102291
     K16V03X KC2016 11 09.40507 01 23 23.01 +22 35 38.0          19.3 RoEV102291
     K16V03X KC2016 11 10.11405 01 20 08.11 +23 09 57.5                oEV102291
     K16V03X KC2016 11 10.11922 01 20 06.66 +23 10 12.1                oEV102291
     K16V03X KC2016 11 10.12443 01 20 05.19 +23 10 27.4                oEV102291
     K16V03X  C2016 11 10.24874 01 19 30.41 +23 16 21.7          20.1 RoEV102926
     K16V03X  C2016 11 10.25534 01 19 28.56 +23 16 40.4          20.0 RoEV102926
     K16V03X  C2016 11 10.26204 01 19 26.69 +23 16 59.5          20.3 RoEV102926
 
Observer details:
291 LPL/Spacewatch II.  Observers R. S. McMillan, T. H. Bressi.  1.8-m f/2.7
    reflector + CCD.
926 Tenagra II Observatory.  Observers M. Schwartz, P. R. Holvorcem.  Measurer
    M. Schwartz.  0.81-m f/7 Ritchey-Chretien + CCD.
G96 Mt. Lemmon Survey.  Observers R. A. Kowalski, R. G. Matheny.  Measurers
    E. J. Christensen, D. C. Fuls, A. R. Gibbs, A. D. Grauer, J. A. Johnson,
    R. A. Kowalski, S. M. Larson, G. J. Leonard, R. G. Matheny, R. L. Seaman,
    F. C. Shelly.  1.5-m reflector + 10K CCD.
T04 Haleakala-LCOGT OGG B #2.
 
Orbital elements:
2016 VX3                                                 Earth MOID = 0.3869 AU
Epoch 2016 July 31.0 TT = JDT 2457600.5                 MPC
M 356.11091              (2000.0)            P               Q
n   0.43495048     Peri.  298.44876     +0.74129476     +0.50436438
a   1.7252135      Node    37.19415     +0.08297274     +0.58585400
e   0.2798018      Incl.   47.09931     -0.66603123     +0.63434350
P   2.27           H   20.6           G   0.15           U   8
Residuals in seconds of arc
161107 G96  0.3+  0.5-    161107 G96  0.0   0.4-    161109 926  0.4+  0.6-
161107 G96  0.1-  0.2+    161107 G96  0.6-  0.1+    161109 926  0.3+  0.6+
161107 G96  0.2+  0.2-    161107 G96  1.1+  0.3+    161109 926  0.4-  0.3+
161107 G96  1.5-  0.5+    161108 926  0.3+  0.2-    161109 926  0.4-  0.4+
161107 926  0.1-  0.0     161108 926  0.2-  0.0     161109 291  0.1-  0.2-
161107 926  0.2+  0.3+    161108 G96  0.2-  0.2-    161109 291  0.3-  0.4+
161107 926  0.1+  0.0     161108 G96  0.2+  0.8-    161109 291  0.1-  0.3-
161107 T04  0.1-  0.3-    161108 926  0.3-  0.2-    161110 291  0.0   0.0
161107 T04  0.1+  0.1+    161108 G96  0.2+  0.3-    161110 291  0.1-  0.2-
161107 T04  0.3+  0.1+    161109 G96  0.2+  0.7-    161110 291  0.3-  0.1+
161107 T04  0.2+  0.0     161109 G96  0.2+  0.4+    161110 926  0.4+  0.1-
161107 T04  0.0   0.1+    161109 G96  0.1-  0.0     161110 926  0.4+  0.1-
161107 T04  0.1+  0.3-    161109 G96  0.2-  1.3+    161110 926  0.4+  0.1+
161107 T04  0.2+  0.3-    161109 926  0.1+  0.1-
161107 G96  0.2-  0.7+    161109 926  0.1+  0.5-

Ephemeris:
2016 VX3                 a,e,i = 1.73, 0.28, 47                  q = 1.2425
Date    TT    R. A. (2000) Decl.     Delta      r     Elong.  Phase     V
2016 10 11    04 01 02.9 -10 48 44   0.4434  1.3402   132.9    33.1    20.9
...
2016 10 26    02 42 41.6 +06 52 46   0.3975  1.3860   168.6     8.2    19.9
...
2016 11 03    01 56 19.4 +16 30 13   0.4244  1.4127   171.0     6.3    20.0
...
2016 11 09    01 25 18.8 +22 15 34   0.4669  1.4334   157.7    15.2    20.6
2016 11 10    01 20 38.9 +23 04 33   0.4756  1.4370   155.7    16.5    20.7
2016 11 11    01 16 08.6 +23 51 10   0.4846  1.4405   153.7    17.7    20.7
...
2016 11 17    00 52 34.9 +27 45 38   0.5459  1.4620   143.0    24.0    21.2
...
2016 11 25    00 30 08.1 +31 24 10   0.6418  1.4914   131.4    29.8    21.8
...
2016 12 10    00 10 16.0 +35 38 47   0.8458  1.5478   115.2    35.1    22.6

A. U. Tomatic                (C) Copyright 2016 MPC           M.P.E.C. 2016-V102




More information about the Iaude mailing list